Location: Strada George Coșbuc
(47.6577°N, 23.5639°E)
Time: 14:32:14
(UTC+02:00)

ISS - Pass Details

Date: 18 July 2017
Orbit: 412 x 421 km, 51.6° (Epoch: 22 November)

Event Time Altitude Azimuth Distance (km) Brightness Sun altitude
Rises 02:25:11 0° 293° (WNW) 2,365 0.2 -20.3°
Reaches altitude 10° 02:27:16 10° 295° (WNW) 1,507 -0.8 -20.2°
Maximum altitude 02:30:39 80° 21° (NNE) 438 -3.7 -20.1°
Enters shadow 02:32:46 22° 108° (ESE) 1,001 -1.9 -20.0°
